Clarksburg, WV

1:39 PM EST on November 21, 2019 (GMT -0500)
Benedum

Weather History for KCKB - May, 2019

Change the Weather History Date:

Monday, May 20, 2019

  Actual Average Record
Temperature  
Mean Temperature 69 °F -  
Max Temperature 79 °F 75 °F 93 °F (1959)
Min Temperature 58 °F 51 °F 31 °F (2002)
Cooling Degree Days 4    
Month to date cooling degree days 68  
Year to date cooling degree days 93  
Growing Degree Days 20 (Base 50)    
Moisture  
Dew Point 56 °F    
Average Humidity 62    
Maximum Humidity 84    
Minimum Humidity 40    
Precipitation  
Precipitation 0.00 in - - ()
Month to date precipitation 2.11  
Year to date precipitation 16.24  
Sea Level Pressure  
Sea Level Pressure 29.90 in    
Wind  
Wind Speed 11 mph (WSW)    
Max Wind Speed 22 mph    
Max Gust Speed 30 mph    
Visibility 10 miles    
Events      
Averages and records for this station are not official NWS values.
T = Trace of Precipitation, MM = Missing Value Source: NWS Daily Summary

Daily Weather History Graph

Daily Weather History Graph

Search for Another Location

Airport or City:

Astronomy

May. 20, 2019 Rise Set
Actual Time 6:03 AM EDT 8:31 PM EDT
Civil Twilight 5:32 AM EDT 9:02 PM EDT
Nautical Twilight 4:54 AM EDT 9:40 PM EDT
Astronomical Twilight 4:12 AM EDT 10:23 PM EDT
Moon 10:31 PM EDT (5/20) 7:30 AM EDT (5/20)
Length of Visible Light 15h 29m
Length of Day
14h 28m
Waning Gibbous, 96% of the Moon is Illuminated
May 20
Waning Gibbous
May 26
Last Quarter
Jun 3
New
Jun 10
First Quarter
Jun 17
Full

Hourly Weather History & Observations

Time (EDT) Temp. Dew Point Humidity Pressure Visibility Wind Dir Wind Speed Gust Speed Precip Events Conditions
12:53 AM 70.0 °F 63.0 °F 78% 29.88 in 10.0 mi WSW 8.1 mph - 0.02 in   Overcast
1:53 AM 69.1 °F 64.0 °F 84% 29.87 in 10.0 mi South 4.6 mph - N/A   Mostly Cloudy
2:53 AM 69.1 °F 62.1 °F 78% 29.86 in 10.0 mi South 5.8 mph - N/A   Mostly Cloudy
3:53 AM 69.1 °F 61.0 °F 75% 29.85 in 10.0 mi SSW 8.1 mph - N/A   Scattered Clouds
4:53 AM 68.0 °F 61.0 °F 78% 29.86 in 10.0 mi SSW 4.6 mph - N/A   Clear
5:53 AM 66.9 °F 60.1 °F 79% 29.86 in 10.0 mi SSW 4.6 mph - N/A   Mostly Cloudy
6:53 AM 69.1 °F 60.1 °F 73% 29.89 in 10.0 mi West 8.1 mph - N/A   Scattered Clouds
7:53 AM 70.0 °F 60.1 °F 71% 29.91 in 10.0 mi WSW 6.9 mph - N/A   Partly Cloudy
8:53 AM 72.0 °F 61.0 °F 68% 29.90 in 10.0 mi SW 11.5 mph - N/A   Scattered Clouds
9:53 AM 73.0 °F 59.0 °F 61% 29.91 in 10.0 mi West 9.2 mph - N/A   Mostly Cloudy
10:53 AM 73.9 °F 57.9 °F 57% 29.91 in 10.0 mi SW 16.1 mph 23.0 mph N/A   Clear
11:53 AM 73.0 °F 57.0 °F 57% 29.91 in 10.0 mi West 11.5 mph 24.2 mph N/A   Scattered Clouds
12:53 PM 75.9 °F 57.0 °F 52% 29.92 in 10.0 mi WSW 17.3 mph 24.2 mph N/A   Mostly Cloudy
1:53 PM 77.0 °F 57.0 °F 50% 29.91 in 10.0 mi West 12.7 mph 24.2 mph N/A   Partly Cloudy
2:53 PM 78.1 °F 54.0 °F 43% 29.90 in 10.0 mi WSW 19.6 mph 26.5 mph N/A   Partly Cloudy
3:53 PM 78.1 °F 54.0 °F 43% 29.88 in 10.0 mi West 16.1 mph 23.0 mph N/A   Partly Cloudy
4:53 PM 78.1 °F 53.1 °F 42% 29.88 in 10.0 mi WSW 13.8 mph 25.3 mph N/A   Partly Cloudy
5:53 PM 77.0 °F 52.0 °F 42% 29.88 in 10.0 mi West 13.8 mph 21.9 mph N/A   Partly Cloudy
6:53 PM 75.0 °F 52.0 °F 44% 29.90 in 10.0 mi WNW 13.8 mph 23.0 mph N/A   Mostly Cloudy
7:53 PM 73.0 °F 51.1 °F 46% 29.91 in 10.0 mi WNW 9.2 mph 19.6 mph N/A   Partly Cloudy
8:53 PM 69.1 °F 50.0 °F 51% 29.94 in 10.0 mi NW 13.8 mph - N/A   Clear
9:53 PM 66.0 °F 48.9 °F 54% 29.96 in 10.0 mi WNW 10.4 mph - N/A   Clear
10:53 PM 63.0 °F 48.9 °F 60% 29.98 in 10.0 mi NNW 11.5 mph - N/A   Clear
11:53 PM 61.0 °F 48.9 °F 64% 30.00 in 10.0 mi NW 6.9 mph - N/A   Clear